Date String (YYYY-MM-DD hh:mm:ss) UTC,Instrument flags,absolute air pressure of the measurement (hPa),sample flow rate (lpm),inlet stack bypass flow (lpm),air temperature of the measurement (°C),ambient temperature measured by the external sensor (°C),aerosol sample conditioner tube jacket temperature (°C),OPC LED temperature (°C),internal box temperature (°C),relative humidity of the measurement (%),span deviation,mass concentration of particles derived from Lorenz-Mie calculation of OPC scattering (μg/m³),mass concentration of particles derived from Lorenz-Mie calculation of OPC scattering (μg/m³),mass concentration of particles derived from Lorenz-Mie calculation of OPC scattering (μg/m³)
DateTimeUTC,F1_M11,P_M11,Q1_M11,Q2_M11,T1_M11,T2_M11,T3_M11,T4_M11,T5_M11,U1_M11,ZSPAN_M11,X0_M11,X2_M11,X1_M11
2023-08-06 20:00:00,SystemResetWarning,0837.6,5.00,000.00,029.5,027.6,000.0,038.1,031.1,31.3,-000.8,0012.18,0007.38,0006.80
2023-08-06 20:01:00,SystemResetWarning,0837.6,5.00,000.00,029.5,027.8,000.0,038.1,031.1,31.3,-000.4,0011.66,0007.35,0006.81
2023-08-06 20:02:00,SystemResetWarning,0837.6,5.00,000.00,029.5,028.0,000.0,038.1,031.2,31.3,-000.0,0011.42,0007.35,0006.82
2023-08-06 20:03:00,SystemResetWarning,0837.6,5.00,000.00,029.5,028.1,000.0,038.1,031.2,31.3,0000.3,0011.33,0007.34,0006.81
2023-08-06 20:04:00,SystemResetWarning,0837.5,4.99,000.00,029.6,028.2,000.0,038.1,031.2,31.1,-000.3,0011.21,0007.31,0006.79
2023-08-06 20:05:00,SystemResetWarning,0837.4,4.99,000.00,029.6,028.3,000.0,038.1,031.3,30.9,-000.3,0010.96,0007.24,0006.73
2023-08-06 20:06:00,SystemResetWarning,0837.4,5.00,000.00,029.6,028.4,000.0,038.1,031.3,30.9,0000.2,0010.83,0007.16,0006.68
2023-08-06 20:07:00,SystemResetWarning,0837.2,5.00,000.00,029.7,028.5,000.0,038.2,031.3,30.8,0000.5,0010.63,0007.06,0006.65
2023-08-06 20:08:00,SystemResetWarning,0837.2,5.00,000.00,029.7,028.5,000.0,038.2,031.4,30.6,0000.4,0010.56,0007.01,0006.61
2023-08-06 20:09:00,SystemResetWarning,0837.2,4.99,000.00,029.7,027.2,000.0,038.1,031.2,30.6,0000.2,0010.08,0006.92,0006.56
2023-08-06 20:10:00,SystemResetWarning,0837.1,5.00,000.00,029.6,025.9,000.0,038.0,031.0,30.7,-000.6,0009.36,0006.84,0006.51
2023-08-06 20:11:00,SystemResetWarning,0837.1,5.01,000.00,029.6,025.7,000.0,037.9,030.8,30.9,-000.9,0009.29,0006.82,0006.45
2023-08-06 20:12:00,SystemResetWarning,0836.9,5.01,000.00,029.5,025.9,000.0,037.9,030.7,31.1,-001.2,0009.61,0006.81,0006.40
2023-08-06 20:13:00,SystemResetWarning,0837.0,4.99,000.00,029.4,026.3,000.0,038.0,030.8,31.2,-001.5,0009.66,0006.73,0006.33
2023-08-06 20:14:00,SystemResetWarning,0837.0,5.00,000.00,029.4,026.7,000.0,038.0,030.9,31.4,-002.0,0009.94,0006.72,0006.31
2023-08-06 20:15:00,SystemResetWarning,0837.0,5.01,000.00,029.4,027.0,000.0,038.0,030.9,31.1,-002.1,0009.91,0006.72,0006.29
2023-08-06 20:16:00,SystemResetWarning,0837.1,5.01,000.00,029.4,027.3,000.0,038.0,031.0,31.1,-002.3,0010.12,0006.75,0006.30
2023-08-06 20:17:00,SystemResetWarning,0837.2,5.00,000.00,029.4,027.6,000.0,038.0,031.1,31.7,-002.5,0010.21,0006.77,0006.31
2023-08-06 20:18:00,SystemResetWarning,0837.2,5.00,000.00,029.5,027.8,000.0,038.0,031.1,31.6,-002.7,0010.31,0006.79,0006.29
2023-08-06 20:19:00,SystemResetWarning,0837.2,5.00,000.00,029.5,027.9,000.0,038.0,031.1,31.6,-002.6,0010.34,0006.76,0006.27
2023-08-06 20:20:00,SystemResetWarning,0837.2,5.00,000.00,029.5,028.1,000.0,038.0,031.2,31.2,-002.6,0010.42,0006.77,0006.27
2023-08-06 20:21:00,SystemResetWarning,0837.4,4.99,000.00,029.5,028.2,000.0,038.1,031.2,31.3,-002.5,0010.56,0006.75,0006.24
2023-08-06 20:22:00,SystemResetWarning,0837.4,4.99,000.00,029.6,028.3,000.0,038.1,031.2,31.2,-002.4,0010.50,0006.70,0006.22
2023-08-06 20:23:00,SystemResetWarning,0837.4,5.00,000.00,029.6,028.4,000.0,038.1,031.3,31.0,-002.7,0010.26,0006.68,0006.22
2023-08-06 20:24:00,SystemResetWarning,0837.5,5.00,000.00,029.6,028.4,000.0,038.1,031.3,30.7,-002.5,0010.09,0006.71,0006.24
2023-08-06 20:25:00,SystemResetWarning,0837.4,5.00,000.00,029.6,028.5,000.0,038.1,031.3,30.6,-002.4,0010.05,0006.71,0006.24
2023-08-06 20:26:00,SystemResetWarning,0837.4,4.99,000.00,029.7,028.5,000.0,038.2,031.3,30.8,-002.4,0010.10,0006.69,0006.22
2023-08-06 20:27:00,SystemResetWarning,0837.2,5.01,000.00,029.7,028.6,000.0,038.2,031.3,30.7,-002.1,0010.14,0006.68,0006.23
2023-08-06 20:28:00,SystemResetWarning,0837.2,4.99,000.00,029.7,027.5,000.0,038.1,031.2,31.0,-001.9,0010.21,0006.70,0006.23
2023-08-06 20:29:00,SystemResetWarning,0837.1,5.01,000.00,029.7,025.9,000.0,038.0,031.0,31.1,-001.6,0010.12,0006.68,0006.26
2023-08-06 20:30:00,SystemResetWarning,0837.0,5.00,000.00,029.6,025.5,000.0,037.9,030.9,31.4,-001.1,0010.17,0006.70,0006.28
2023-08-06 20:31:00,SystemResetWarning,0837.0,5.00,000.00,029.5,025.7,000.0,037.9,030.7,31.4,-001.3,0010.26,0006.70,0006.29
2023-08-06 20:32:00,SystemResetWarning,0836.9,5.01,000.00,029.4,026.1,000.0,038.0,030.7,31.8,-001.5,0010.53,0006.75,0006.31
2023-08-06 20:33:00,SystemResetWarning,0837.0,4.99,000.00,029.4,026.5,000.0,038.0,030.8,31.0,-001.7,0010.99,0006.77,0006.32
2023-08-06 20:34:00,SystemResetWarning,0836.9,4.99,000.00,029.4,026.8,000.0,038.0,030.9,30.9,-001.5,0010.92,0006.75,0006.32
2023-08-06 20:35:00,SystemResetWarning,0836.8,5.00,000.00,029.4,027.1,000.0,038.0,030.9,31.1,-001.6,0011.11,0006.74,0006.32
2023-08-06 20:36:00,SystemResetWarning,0836.9,5.01,000.00,029.4,027.4,000.0,038.0,031.0,31.7,-001.4,0011.08,0006.76,0006.31
2023-08-06 20:37:00,SystemResetWarning,0837.0,5.00,000.00,029.4,027.6,000.0,038.0,031.0,31.6,-001.4,0011.21,0006.84,0006.33
2023-08-06 20:38:00,SystemResetWarning,0837.1,5.00,000.00,029.4,027.8,000.0,038.0,031.0,32.0,-001.4,0011.11,0006.84,0006.32
2023-08-06 20:39:00,SystemResetWarning,0837.1,5.00,000.00,029.4,027.9,000.0,038.0,031.1,32.3,-001.5,0010.97,0006.82,0006.30
2023-08-06 20:40:00,SystemResetWarning,0837.2,4.99,000.00,029.5,028.0,000.0,038.0,031.1,32.4,-001.5,0011.03,0006.82,0006.29
2023-08-06 20:41:00,SystemResetWarning,0837.1,5.00,000.00,029.5,028.1,000.0,038.0,031.1,32.1,-001.8,0011.03,0006.83,0006.28
2023-08-06 20:42:00,SystemResetWarning,0837.0,5.00,000.00,029.5,028.2,000.0,038.0,031.2,32.3,-001.7,0011.21,0006.85,0006.27
2023-08-06 20:43:00,SystemResetWarning,0837.0,5.00,000.00,029.5,028.3,000.0,038.1,031.2,31.5,-001.4,0010.94,0006.84,0006.26
2023-08-06 20:44:00,SystemResetWarning,0837.0,5.00,000.00,029.6,028.4,000.0,038.1,031.2,31.4,-001.3,0010.47,0006.84,0006.27
2023-08-06 20:45:00,SystemResetWarning,0836.9,5.00,000.00,029.6,028.4,000.0,038.1,031.3,31.2,-001.5,0011.04,0006.86,0006.28
2023-08-06 20:46:00,SystemResetWarning,0837.0,5.00,000.00,029.6,028.5,000.0,038.1,031.3,31.6,-001.8,0010.93,0006.89,0006.31
2023-08-06 20:47:00,SystemResetWarning,0837.2,5.00,000.00,029.6,028.5,000.0,038.1,031.3,31.8,-002.0,0010.93,0006.92,0006.36
2023-08-06 20:48:00,SystemResetWarning,0837.3,5.01,000.00,029.7,028.5,000.0,038.2,031.3,32.0,-002.2,0010.73,0006.87,0006.36
2023-08-06 20:49:00,SystemResetWarning,0837.2,5.00,000.00,029.7,028.6,000.0,038.2,031.3,31.7,-002.3,0010.71,0006.90,0006.38
2023-08-06 20:50:00,SystemResetWarning,0837.0,4.99,000.00,029.7,028.2,000.0,038.2,031.3,31.8,-002.5,0010.76,0006.91,0006.41
2023-08-06 20:51:00,SystemResetWarning,0837.0,4.99,000.00,029.7,026.4,000.0,038.0,031.1,31.8,-002.2,0010.88,0006.93,0006.44
2023-08-06 20:52:00,SystemResetWarning,0837.2,5.00,000.00,029.6,025.5,000.0,037.9,030.9,32.1,-002.3,0010.88,0006.95,0006.45
2023-08-06 20:53:00,SystemResetWarning,0837.2,5.01,000.00,029.5,025.5,000.0,037.9,030.6,32.4,-002.2,0010.73,0007.00,0006.50
2023-08-06 20:54:00,SystemResetWarning,0837.3,5.00,000.00,029.4,025.8,000.0,038.0,030.6,32.3,-002.3,0011.03,0007.06,0006.55
2023-08-06 20:55:00,SystemResetWarning,0837.4,4.99,000.00,029.4,026.2,000.0,038.0,030.7,32.7,-002.2,0011.51,0007.15,0006.62
2023-08-06 20:56:00,SystemResetWarning,0837.4,5.00,000.00,029.4,026.6,000.0,038.0,030.8,32.8,-001.9,0011.39,0007.18,0006.65
2023-08-06 20:57:00,SystemResetWarning,0837.5,5.00,000.00,029.4,026.9,000.0,038.0,030.9,33.1,-001.4,0010.94,0007.22,0006.71
2023-08-06 20:58:00,SystemResetWarning,0837.5,5.01,000.00,029.4,027.2,000.0,038.0,030.9,33.0,-000.8,0010.91,0007.26,0006.76
2023-08-06 20:59:00,SystemResetWarning,0837.3,5.00,000.00,029.4,027.5,000.0,038.0,031.0,32.6,-000.5,0010.88,0007.30,0006.80
